Location: Sungai Igah
(2.7333°N, 114.2500°E)
Time: 21:54:01
(UTC+00:00)

SL-08 ROCKET BODY - Pass Details

Date: 14 June 2021
Orbit: 897 x 962 km, 82.9° (Epoch: 25 July)

Event Time Altitude Azimuth Distance (km) Brightness Sun altitude
Exits shadow 20:40:38 14° 180° (S) 2,323 6.2 -22.3°
Maximum altitude 20:45:48 82° 94° (E) 924 4.4 -21.1°
Drops below altitude 10° 20:51:40 10° 6° (N) 2,575 7.1 -19.8°
Sets 20:54:06 0° 5° (N) 3,508 7.9 -19.3°
